| time (UTC) | temp C | wind direction | speed KPH | gust KPH | rain 1hr cm | rain 24hr cm | rain mn cm | humidity % | barometer mb |
| 20260504081508 | 17 | 276 | 0.0 | 0.0 | 0.00 | 0.00 | 0.00 | 64 | 1006.7 |
| 20260504050020 | 25 | 294 | 0.0 | 3.2 | 0.00 | 0.00 | 0.00 | 44 | 1005.5 |
| 20260504044519 | 25 | 296 | 1.6 | 4.8 | 0.00 | 0.00 | 0.00 | 45 | 1005.5 |
| 20260504043018 | 25 | 288 | 0.0 | 1.6 | 0.00 | 0.00 | 0.00 | 45 | 1005.4 |
| 20260504041517 | 26 | 287 | 0.0 | 4.8 | 0.00 | 0.00 | 0.00 | 45 | 1005.2 |
| 20260504040018 | 26 | 300 | 0.0 | 1.6 | 0.00 | 0.00 | 0.00 | 44 | 1005.2 |
| 20260504034528 | 27 | 288 | 0.0 | 1.6 | 0.00 | 0.00 | 0.00 | 42 | 1005.0 |
| 20260504033013 | 27 | 297 | 1.6 | 8.0 | 0.00 | 0.00 | 0.00 | 40 | 1004.9 |
| 20260504031513 | 28 | 301 | 0.0 | 6.4 | 0.00 | 0.00 | 0.00 | 39 | 1004.7 |
| 20260504030012 | 28 | 290 | 1.6 | 12.9 | 0.00 | 0.00 | 0.00 | 37 | 1004.7 |
| 20260504024512 | 29 | 287 | 1.6 | 8.0 | 0.00 | 0.00 | 0.00 | 36 | 1004.6 |
| 20260504023041 | 30 | 285 | 1.6 | 12.9 | 0.00 | 0.00 | 0.00 | 35 | 1004.6 |
| 20260504021540 | 30 | 323 | 1.6 | 12.9 | 0.00 | 0.00 | 0.00 | 34 | 1004.6 |
| 20260504020040 | 31 | 306 | 4.8 | 12.9 | 0.00 | 0.00 | 0.00 | 33 | 1004.6 |
| 20260504014536 | 31 | 322 | 6.4 | 16.1 | 0.00 | 0.00 | 0.00 | 32 | 1004.6 |
| 20260504013036 | 31 | 285 | 6.4 | 14.5 | 0.00 | 0.00 | 0.00 | 31 | 1004.6 |
| 20260504011533 | 31 | 335 | 4.8 | 14.5 | 0.00 | 0.00 | 0.00 | 31 | 1004.7 |
| 20260504010044 | 32 | 269 | 8.0 | 17.7 | 0.00 | 0.00 | 0.00 | 31 | 1004.9 |
| 20260504004528 | 32 | 298 | 6.4 | 17.7 | 0.00 | 0.00 | 0.00 | 30 | 1004.9 |
| 20260504003025 | 32 | 6 | 1.6 | 14.5 | 0.00 | 0.00 | 0.00 | 30 | 1005.2 |
| 20260504001524 | 32 | 15 | 4.8 | 12.9 | 0.00 | 0.00 | 0.00 | 30 | 1005.2 |
| 20260504000022 | 31 | 296 | 9.7 | 17.7 | 0.00 | 0.00 | 0.00 | 30 | 1005.3 |
| 20260503234523 | 32 | 265 | 3.2 | 14.5 | 0.00 | 0.00 | 0.00 | 31 | 1005.4 |
| 20260503233016 | 32 | 315 | 8.0 | 17.7 | 0.00 | 0.00 | 0.00 | 32 | 1005.7 |
| 20260503231518 | 32 | 278 | 4.8 | 12.9 | 0.00 | 0.00 | 0.00 | 29 | 1005.7 |
| 20260503230014 | 32 | 293 | 4.8 | 14.5 | 0.00 | 0.00 | 0.00 | 30 | 1005.8 |
| 20260503224508 | 32 | 321 | 4.8 | 14.5 | 0.00 | 0.00 | 0.00 | 31 | 1006.1 |
| 20260503223006 | 32 | 307 | 1.6 | 11.3 | 0.00 | 0.00 | 0.00 | 28 | 1006.3 |
| 20260503221504 | 32 | 255 | 3.2 | 9.7 | 0.00 | 0.00 | 0.00 | 26 | 1006.5 |
| 20260503220000 | 31 | 47 | 6.4 | 11.3 | 0.00 | 0.00 | 0.00 | 33 | 1006.8 |
| 20260503214658 | 31 | 26 | 3.2 | 12.9 | 0.00 | 0.00 | 0.00 | 35 | 1006.9 |
| 20260503213123 | 31 | 103 | 1.6 | 9.7 | 0.00 | 0.00 | 0.00 | 35 | 1007.1 |
| 20260503211616 | 31 | 279 | 0.0 | 11.3 | 0.00 | 0.00 | 0.00 | 38 | 1007.2 |
| 20260503210046 | 29 | 324 | 6.4 | 14.5 | 0.00 | 0.00 | 0.00 | 42 | 1007.6 |
| 20260503204514 | 29 | 289 | 9.7 | 14.5 | 0.00 | 0.00 | 0.00 | 43 | 1007.8 |
| 20260503203020 | 29 | 305 | 1.6 | 9.7 | 0.00 | 0.00 | 0.00 | 45 | 1008.1 |
| 20260503201505 | 28 | 285 | 1.6 | 11.3 | 0.00 | 0.00 | 0.00 | 47 | 1008.3 |
| 20260503200000 | 27 | 264 | 3.2 | 9.7 | 0.00 | 0.00 | 0.00 | 48 | 1008.6 |
| 20260503194558 | 27 | 326 | 4.8 | 12.9 | 0.00 | 0.00 | 0.00 | 50 | 1008.6 |
| 20260503193055 | 26 | 350 | 0.0 | 11.3 | 0.00 | 0.00 | 0.00 | 52 | 1008.8 |
| 20260503191601 | 26 | 281 | 0.0 | 9.7 | 0.00 | 0.00 | 0.00 | 53 | 1008.9 |
| 20260503190047 | 25 | 342 | 3.2 | 9.7 | 0.00 | 0.00 | 0.00 | 53 | 1009.1 |
| 20260503184603 | 25 | 280 | 0.0 | 8.0 | 0.00 | 0.00 | 0.00 | 54 | 1009.3 |
| 20260503183045 | 23 | 330 | 1.6 | 9.7 | 0.00 | 0.00 | 0.00 | 56 | 1009.5 |
| 20260503181533 | 22 | 294 | 4.8 | 9.7 | 0.00 | 0.00 | 0.00 | 59 | 1009.6 |
| 20260503180033 | 22 | 32 | 4.8 | 11.3 | 0.00 | 0.00 | 0.00 | 62 | 1009.9 |
| 20260503174536 | 21 | 309 | 1.6 | 9.7 | 0.00 | 0.00 | 0.00 | 66 | 1009.9 |
| 20260503173024 | 20 | 333 | 3.2 | 8.0 | 0.00 | 0.00 | 0.00 | 67 | 1010.1 |
| 20260503171525 | 20 | 35 | 1.6 | 6.4 | 0.00 | 0.00 | 0.00 | 69 | 1010.3 |